Location: Firdgum
(53.2488°N, 5.5615°E)
Time: 20:06:04
(UTC+00:00)

Cosmos 2026 Rocket - Pass Details

Date: 08 December 2019
Orbit: 940 x 1000 km, 82.9° (Epoch: 21 January)

Event Time Altitude Azimuth Distance (km) Brightness Sun altitude
Rises 05:17:03 0° 348° (NNW) 3,634 6.8 -19.8°
Reaches altitude 10° 05:19:32 10° 347° (NNW) 2,691 6.1 -19.4°
Maximum altitude 05:25:40 74° 264° (W) 1,005 3.9 -18.5°
Drops below altitude 10° 05:31:51 10° 180° (S) 2,712 6.5 -17.6°
Sets 05:34:22 0° 179° (S) 3,664 7.2 -17.3°
